Du Bois, PA

9:04 AM EDT on May 24, 2017 (GMT -0400)
Du Bois-Jefferson County

Weather History for KDUJ - January, 2014

Change the Weather History Date:

Monday, January 13, 2014

  Actual Average Record
Temperature  
Mean Temperature 41 °F 23 °F  
Max Temperature 49 °F 31 °F 65 °F (1972)
Min Temperature 33 °F 16 °F -7 °F (1977)
Degree Days  
Heating Degree Days 24 42  
Month to date heating degree days 559 536  
Since 1 July heating degree days 3046 3198  
Cooling Degree Days 0 0  
Month to date cooling degree days 0 0  
Year to date cooling degree days 0 0  
Moisture  
Dew Point 31 °F    
Average Humidity 66    
Maximum Humidity 92    
Minimum Humidity 39    
Precipitation  
Precipitation 0.27 in 0.10 in 1.32 in (1999)
Month to date precipitation 1.29 1.36  
Sea Level Pressure  
Sea Level Pressure 29.87 in    
Wind  
Wind Speed 6 mph (SSW)    
Max Wind Speed 10 mph    
Max Gust Speed 22 mph    
Visibility 9 miles    
Events Rain    
T = Trace of Precipitation, MM = Missing Value Source: NWS Daily Summary

Daily Weather History Graph

Daily Weather History Graph

Search for Another Location

Airport or City:

Trip Planner

Search our weather history database for the weather conditions in past years. The results will help you decide how hot, cold, wet, or windy it might be!

Date:

Astronomy

Jan. 13, 2014 Rise Set
Actual Time 7:39 AM EST 5:09 PM EST
Civil Twilight 7:09 AM EST 5:39 PM EST
Nautical Twilight 6:34 AM EST 6:14 PM EST
Astronomical Twilight 6:01 AM EST 6:47 PM EST
Moon 3:23 PM EST (1/13) 5:26 AM EST (1/13)
Length of Visible Light 10h 30m
Length of Day
9h 29m
Waxing Gibbous, 95% of the Moon is Illuminated
Jan 13
Waxing Gibbous
Jan 15
Full
Jan 24
Last Quarter
Jan 30
New
Feb 6
First Quarter

Hourly Weather History & Observations

Time (EST) Temp. Windchill Dew Point Humidity Pressure Visibility Wind Dir Wind Speed Gust Speed Precip Events Conditions
12:56 AM 33.1 °F 28.7 °F 27.0 °F 78% 30.00 in 10.0 mi SW 4.6 mph - N/A   Clear
1:56 AM 36.0 °F 31.1 °F 28.0 °F 73% 29.98 in 10.0 mi SSW 5.8 mph - N/A   Clear
2:56 AM 36.0 °F 30.3 °F 27.0 °F 70% 29.99 in 10.0 mi SW 6.9 mph - N/A   Clear
3:56 AM 37.0 °F 33.3 °F 26.1 °F 65% 29.99 in 10.0 mi SSW 4.6 mph - N/A   Clear
4:56 AM 39.0 °F 34.8 °F 25.0 °F 57% 29.98 in 10.0 mi Variable 5.8 mph - N/A   Clear
5:56 AM 37.0 °F 33.3 °F 25.0 °F 62% 29.96 in 10.0 mi South 4.6 mph - N/A   Clear
6:56 AM 37.9 °F - 25.0 °F 60% 29.96 in 10.0 mi Calm Calm - N/A   Clear
7:56 AM 39.9 °F 37.8 °F 23.0 °F 51% 29.95 in 10.0 mi South 3.5 mph - N/A   Clear
8:56 AM 44.1 °F 38.6 °F 23.0 °F 43% 29.93 in 10.0 mi SSW 10.4 mph 21.9 mph N/A   Clear
9:56 AM 46.0 °F 41.9 °F 24.1 °F 42% 29.89 in 10.0 mi South 8.1 mph - N/A   Clear
10:56 AM 46.9 °F - 25.0 °F 42% 29.90 in 10.0 mi SSW 10.4 mph 18.4 mph N/A   Clear
11:56 AM 48.0 °F - 25.0 °F 41% 29.86 in 10.0 mi SSW 6.9 mph - N/A   Clear
12:56 PM 48.0 °F - 26.1 °F 42% 29.81 in 10.0 mi Variable 6.9 mph - N/A   Partly Cloudy
1:56 PM 48.0 °F - 27.0 °F 44% 29.80 in 10.0 mi SSE 5.8 mph - N/A   Clear
2:56 PM 48.9 °F - 26.1 °F 41% 29.79 in 10.0 mi South 4.6 mph - N/A   Mostly Cloudy
3:56 PM 46.9 °F - 33.1 °F 59% 29.81 in 8.0 mi SSW 11.5 mph 19.6 mph 0.01 in Rain Light Rain
4:56 PM 44.1 °F 39.0 °F 39.0 °F 82% 29.82 in 9.0 mi SW 9.2 mph - 0.05 in   Overcast
5:30 PM 44.6 °F 39.7 °F 39.2 °F 81% 29.78 in 10.0 mi SSW 9.2 mph - 0.01 in   Overcast
5:56 PM 44.1 °F 39.5 °F 39.9 °F 85% 29.81 in 9.0 mi SSW 8.1 mph - 0.02 in   Overcast
6:37 PM 44.6 °F 41.4 °F 41.0 °F 87% 29.76 in 8.0 mi Variable 5.8 mph - 0.03 in Rain Light Rain
6:56 PM 44.1 °F 40.1 °F 41.0 °F 89% 29.78 in 7.0 mi South 6.9 mph - 0.04 in   Overcast
7:56 PM 45.0 °F 40.6 °F 42.1 °F 90% 29.77 in 6.0 mi South 8.1 mph - 0.03 in   Overcast
8:56 PM 46.0 °F 41.0 °F 43.0 °F 89% 29.74 in 6.0 mi SSW 10.4 mph 19.6 mph 0.04 in   Overcast
9:56 PM 46.9 °F - 43.0 °F 86% 29.72 in 9.0 mi SSW 11.5 mph 19.6 mph 0.08 in Rain Light Rain